McCall, ID

4:14 PM MST on February 22, 2017 (GMT -0700)
McCall

Weather History for KMYL - November, 2014

Change the Weather History Date:

Sunday, November 9, 2014

  Actual Average Record
Temperature  
Mean Temperature 38 °F 32 °F  
Max Temperature 48 °F 41 °F 63 °F (2016)
Min Temperature 28 °F 22 °F 2 °F (1986)
Degree Days  
Heating Degree Days 27 33  
Month to date heating degree days 241 286  
Since 1 July heating degree days 1211 1829  
Cooling Degree Days 0 0  
Month to date cooling degree days 0 0  
Year to date cooling degree days 185 25  
Moisture  
Dew Point 34 °F    
Average Humidity 81    
Maximum Humidity 100    
Minimum Humidity 61    
Precipitation  
Precipitation 0.12 in 0.10 in 0.95 in (1949)
Month to date precipitation 0.52 0.92  
Year to date precipitation 19.53 16.24  
Sea Level Pressure  
Sea Level Pressure 29.87 in    
Wind  
Wind Speed 4 mph (NW)    
Max Wind Speed 17 mph    
Max Gust Speed 23 mph    
Visibility 9 miles    
Events Rain , Snow    
T = Trace of Precipitation, MM = Missing Value Source: NWS Daily Summary

Daily Weather History Graph

Daily Weather History Graph

Search for Another Location

Airport or City:

Trip Planner

Search our weather history database for the weather conditions in past years. The results will help you decide how hot, cold, wet, or windy it might be!

Date:

Astronomy

Nov. 09, 2014 Rise Set
Actual Time 7:33 AM MST 5:22 PM MST
Civil Twilight 7:02 AM MST 5:53 PM MST
Nautical Twilight 6:27 AM MST 6:28 PM MST
Astronomical Twilight 5:53 AM MST 7:02 PM MST
Moon 7:57 PM MST (11/9) 10:12 AM MST (11/9)
Length of Visible Light 10h 50m
Length of Day
9h 48m
Waning Gibbous, 91% of the Moon is Illuminated
Nov 9
Waning Gibbous
Nov 14
Last Quarter
Nov 22
New
Nov 29
First Quarter
Dec 6
Full

Hourly Weather History & Observations

Time (MST) Temp. Windchill Dew Point Humidity Pressure Visibility Wind Dir Wind Speed Gust Speed Precip Events Conditions
12:51 AM 30.0 °F - 28.0 °F 92% 30.21 in 10.0 mi Calm Calm - 0.00 in   Clear
1:51 AM 32.0 °F 28.7 °F 28.9 °F 88% 30.17 in 10.0 mi East 3.5 mph - N/A   Clear
2:51 AM 33.1 °F - 30.0 °F 89% 30.14 in 10.0 mi Calm Calm - N/A   Clear
3:51 AM 32.0 °F - 30.0 °F 92% 30.12 in 10.0 mi Calm Calm - N/A   Clear
4:51 AM 33.1 °F - 30.0 °F 89% 30.09 in 10.0 mi Calm Calm - N/A   Clear
5:51 AM 32.0 °F 27.5 °F 30.0 °F 92% 30.07 in 10.0 mi Variable 4.6 mph - N/A   Clear
6:51 AM 32.0 °F - 30.0 °F 92% 30.07 in 9.0 mi Calm Calm - 0.00 in   Partly Cloudy
7:51 AM 30.9 °F - 30.0 °F 96% 30.05 in 10.0 mi Calm Calm - 0.00 in   Clear
8:51 AM 33.1 °F - 30.9 °F 92% 30.02 in 10.0 mi Calm Calm - 0.00 in   Clear
9:51 AM 37.9 °F - 35.1 °F 89% 29.97 in 9.0 mi Calm Calm - 0.00 in   Clear
10:51 AM 42.1 °F 39.2 °F 36.0 °F 79% 29.92 in 10.0 mi Variable 4.6 mph - N/A   Partly Cloudy
11:51 AM 45.0 °F 43.5 °F 37.0 °F 74% 29.87 in 10.0 mi NNW 3.5 mph - N/A   Scattered Clouds
12:51 PM 46.9 °F - 37.9 °F 71% 29.83 in 10.0 mi NNW 3.5 mph - N/A   Overcast
1:51 PM 48.0 °F - 36.0 °F 63% 29.78 in 10.0 mi South 15.0 mph - N/A   Overcast
2:51 PM 42.1 °F 40.2 °F 39.0 °F 89% 29.77 in 10.0 mi North 3.5 mph - 0.03 in Rain Light Rain
3:51 PM 43.0 °F 37.2 °F 39.0 °F 86% 29.74 in 10.0 mi SE 10.4 mph - 0.00 in Rain Light Rain
4:07 PM 43.0 °F 36.8 °F 37.9 °F 82% 29.71 in 10.0 mi SSE 11.5 mph - 0.00 in Rain Light Rain
4:51 PM 44.1 °F 39.0 °F 37.9 °F 79% 29.70 in 10.0 mi SSW 9.2 mph - 0.00 in Rain Light Rain
5:51 PM 44.1 °F 38.1 °F 37.9 °F 79% 29.70 in 10.0 mi WNW 11.5 mph - 0.00 in Rain Light Rain
6:10 PM 39.9 °F 32.1 °F 37.0 °F 89% 29.70 in 5.0 mi WNW 13.8 mph 23.0 mph 0.03 in Rain Rain
6:19 PM 39.0 °F 31.4 °F 37.0 °F 93% 29.71 in 5.0 mi WNW 12.7 mph 19.6 mph 0.05 in Rain Rain
6:25 PM 39.0 °F 32.3 °F 37.0 °F 93% 29.71 in 5.0 mi NW 10.4 mph 18.4 mph 0.06 in Rain Light Rain
6:39 PM 37.9 °F 32.7 °F 36.0 °F 93% 29.71 in 7.0 mi NW 6.9 mph 17.3 mph 0.09 in Rain Light Rain
6:51 PM 37.9 °F - 36.0 °F 93% 29.75 in 10.0 mi Calm Calm - 0.09 in Rain Light Rain
7:51 PM 36.0 °F 32.1 °F 35.1 °F 97% 29.75 in 10.0 mi ESE 4.6 mph - 0.00 in   Scattered Clouds
8:51 PM 34.0 °F 31.0 °F 32.0 °F 92% 29.73 in 10.0 mi ESE 3.5 mph - N/A   Clear
9:51 PM 30.9 °F 27.5 °F 30.0 °F 96% 29.74 in 10.0 mi ENE 3.5 mph - N/A   Partly Cloudy
10:51 PM 32.0 °F - 30.0 °F 92% 29.74 in 10.0 mi Calm Calm - N/A   Mostly Cloudy
11:51 PM 34.0 °F 28.8 °F 30.0 °F 85% 29.73 in 6.0 mi West 5.8 mph - 0.00 in Snow Light Snow